Location: *
(45.9500°N, 9.0833°E)
Time: 15:29:15
(UTC+00:00)

Cosmos 1503 Rocket - Pass Details

Date: 03 March 2021
Orbit: 753 x 790 km, 74.0° (Epoch: 15 April)

Event Time Altitude Azimuth Distance (km) Brightness Sun altitude
Rises 18:29:18 0° 337° (NNW) 3,230 7.6 -14.0°
Reaches altitude 10° 18:31:41 10° 338° (NNW) 2,296 6.8 -14.4°
Maximum altitude 18:36:54 86° 251° (WSW) 763 4.0 -15.3°
Drops below altitude 10° 18:42:03 10° 162° (SSE) 2,271 6.2 -16.2°
Sets 18:44:24 0° 162° (SSE) 3,191 7.0 -16.6°
